,Coso Junction,Coso Junction
,PM10_1HR,PM10_1HR
,UG/M3,UG/M3
Date,Value,Null Code
01-Sep-2023 00:00,26.3,
01-Sep-2023 01:00,27.3,
01-Sep-2023 02:00,22.1,
01-Sep-2023 03:00,30.1,
01-Sep-2023 04:00,34.6,
01-Sep-2023 05:00,45.1,
01-Sep-2023 06:00,29,
01-Sep-2023 07:00,20.5,
01-Sep-2023 08:00,19.6,
01-Sep-2023 09:00,49.5,
01-Sep-2023 10:00,43.5,
01-Sep-2023 11:00,41.6,
01-Sep-2023 12:00,50,
01-Sep-2023 13:00,32.8,
01-Sep-2023 14:00,16,
01-Sep-2023 15:00,20.8,
01-Sep-2023 16:00,22.8,
01-Sep-2023 17:00,18.3,
01-Sep-2023 18:00,18.3,
01-Sep-2023 19:00,19.7,
01-Sep-2023 20:00,27.5,
01-Sep-2023 21:00,25.7,
01-Sep-2023 22:00,20.4,
01-Sep-2023 23:00,18.8,
02-Sep-2023 00:00,18.7,
02-Sep-2023 01:00,15.7,
02-Sep-2023 02:00,15.1,
02-Sep-2023 03:00,12.7,
02-Sep-2023 04:00,15.1,
02-Sep-2023 05:00,11.9,
02-Sep-2023 06:00,12.6,
02-Sep-2023 07:00,11.3,
02-Sep-2023 08:00,10.4,
02-Sep-2023 09:00,8.9,
02-Sep-2023 10:00,3.7,
02-Sep-2023 11:00,4.3,
02-Sep-2023 12:00,4.9,
02-Sep-2023 13:00,8.2,
02-Sep-2023 14:00,13.5,
02-Sep-2023 15:00,12.7,
02-Sep-2023 16:00,8,
02-Sep-2023 17:00,7.4,
02-Sep-2023 18:00,8.6,
02-Sep-2023 19:00,9.7,
02-Sep-2023 20:00,12,
02-Sep-2023 21:00,11.5,
02-Sep-2023 22:00,10.5,
02-Sep-2023 23:00,7.8,
03-Sep-2023 00:00,8.6,
03-Sep-2023 01:00,7.7,
03-Sep-2023 02:00,5.4,
03-Sep-2023 03:00,8.5,
03-Sep-2023 04:00,9.2,
03-Sep-2023 05:00,7.1,
03-Sep-2023 06:00,8.1,
03-Sep-2023 07:00,5.5,
03-Sep-2023 08:00,1.8,
03-Sep-2023 09:00,0.2,
03-Sep-2023 10:00,3.3,
03-Sep-2023 11:00,4.1,
03-Sep-2023 12:00,5.2,
03-Sep-2023 13:00,9.4,
03-Sep-2023 14:00,9.7,
03-Sep-2023 15:00,11,
03-Sep-2023 16:00,9,
03-Sep-2023 17:00,11.5,
03-Sep-2023 18:00,36.6,
03-Sep-2023 19:00,23.2,
03-Sep-2023 20:00,27.2,
03-Sep-2023 21:00,22.3,
03-Sep-2023 22:00,21.2,
03-Sep-2023 23:00,25,
04-Sep-2023 00:00,19.3,
04-Sep-2023 01:00,16.2,
04-Sep-2023 02:00,11,
04-Sep-2023 03:00,6.7,
04-Sep-2023 04:00,6.4,
04-Sep-2023 05:00,5.1,
04-Sep-2023 06:00,5.2,
04-Sep-2023 07:00,5.1,
04-Sep-2023 08:00,4.9,
04-Sep-2023 09:00,4.1,
04-Sep-2023 10:00,2.6,
04-Sep-2023 11:00,4.1,
04-Sep-2023 12:00,2.5,
04-Sep-2023 13:00,4.7,
04-Sep-2023 14:00,5.8,
04-Sep-2023 15:00,7.1,
04-Sep-2023 16:00,11.1,
04-Sep-2023 17:00,10.9,
04-Sep-2023 18:00,14.6,
04-Sep-2023 19:00,17.8,
04-Sep-2023 20:00,10,
04-Sep-2023 21:00,12.1,
04-Sep-2023 22:00,11.8,
04-Sep-2023 23:00,11.1,
05-Sep-2023 00:00,9.5,
05-Sep-2023 01:00,11,
05-Sep-2023 02:00,9.2,
05-Sep-2023 03:00,8.9,
05-Sep-2023 04:00,11,
05-Sep-2023 05:00,13.4,
05-Sep-2023 06:00,8.3,
05-Sep-2023 07:00,15.4,
05-Sep-2023 08:00,8.8,
05-Sep-2023 09:00,10,
05-Sep-2023 10:00,12.3,
05-Sep-2023 11:00,12,
05-Sep-2023 12:00,9.9,
05-Sep-2023 13:00,9.4,
05-Sep-2023 14:00,13.1,
05-Sep-2023 15:00,11,
05-Sep-2023 16:00,17.2,
05-Sep-2023 17:00,16.6,
05-Sep-2023 18:00,16.4,
05-Sep-2023 19:00,19.7,
05-Sep-2023 20:00,15.5,
05-Sep-2023 21:00,13.6,
05-Sep-2023 22:00,17.5,
05-Sep-2023 23:00,18.2,
06-Sep-2023 00:00,11.4,
06-Sep-2023 01:00,13.3,
06-Sep-2023 02:00,14.4,
06-Sep-2023 03:00,17.3,
06-Sep-2023 04:00,18.8,
06-Sep-2023 05:00,17.5,
06-Sep-2023 06:00,12.6,
06-Sep-2023 07:00,18.4,
06-Sep-2023 08:00,,AX
06-Sep-2023 09:00,,AX
06-Sep-2023 10:00,,AX
06-Sep-2023 11:00,23.1,
06-Sep-2023 12:00,14.3,
06-Sep-2023 13:00,17.2,
06-Sep-2023 14:00,23.1,
06-Sep-2023 15:00,18.7,
06-Sep-2023 16:00,11.8,
06-Sep-2023 17:00,16.1,
06-Sep-2023 18:00,24.5,
06-Sep-2023 19:00,17.9,
06-Sep-2023 20:00,18.1,
06-Sep-2023 21:00,14.4,
06-Sep-2023 22:00,16.9,
06-Sep-2023 23:00,14.3,
07-Sep-2023 00:00,13.1,
07-Sep-2023 01:00,14.7,
07-Sep-2023 02:00,12.2,
07-Sep-2023 03:00,12.1,
07-Sep-2023 04:00,12.6,
07-Sep-2023 05:00,15.4,
07-Sep-2023 06:00,14.2,
07-Sep-2023 07:00,13.9,
07-Sep-2023 08:00,13.4,
07-Sep-2023 09:00,18.6,
07-Sep-2023 10:00,14.2,
07-Sep-2023 11:00,14.2,
07-Sep-2023 12:00,9.9,
07-Sep-2023 13:00,5.7,
07-Sep-2023 14:00,16.1,
07-Sep-2023 15:00,20.8,
07-Sep-2023 16:00,14.3,
07-Sep-2023 17:00,10,
07-Sep-2023 18:00,8.8,
07-Sep-2023 19:00,16.5,
07-Sep-2023 20:00,13.1,
07-Sep-2023 21:00,14.8,
07-Sep-2023 22:00,15.4,
07-Sep-2023 23:00,14.9,
08-Sep-2023 00:00,14.6,
08-Sep-2023 01:00,31.8,
08-Sep-2023 02:00,16.8,
08-Sep-2023 03:00,16.5,
08-Sep-2023 04:00,16.3,
08-Sep-2023 05:00,22.9,
08-Sep-2023 06:00,23.1,
08-Sep-2023 07:00,16.1,
08-Sep-2023 08:00,11.3,
08-Sep-2023 09:00,15.4,
08-Sep-2023 10:00,12.5,
08-Sep-2023 11:00,14.1,
08-Sep-2023 12:00,19,
08-Sep-2023 13:00,18.2,
08-Sep-2023 14:00,21.2,
08-Sep-2023 15:00,21.2,
08-Sep-2023 16:00,15.8,
08-Sep-2023 17:00,18.2,
08-Sep-2023 18:00,18.1,
08-Sep-2023 19:00,19.9,
08-Sep-2023 20:00,21.5,
08-Sep-2023 21:00,37.5,
08-Sep-2023 22:00,18.2,
08-Sep-2023 23:00,17.6,
09-Sep-2023 00:00,17.7,
09-Sep-2023 01:00,14.5,
09-Sep-2023 02:00,17,
09-Sep-2023 03:00,17,
09-Sep-2023 04:00,16.5,
09-Sep-2023 05:00,17.8,
09-Sep-2023 06:00,19.7,
09-Sep-2023 07:00,11,
09-Sep-2023 08:00,6.8,
09-Sep-2023 09:00,8.3,
09-Sep-2023 10:00,4.7,
09-Sep-2023 11:00,7.5,
09-Sep-2023 12:00,13.8,
09-Sep-2023 13:00,14.1,
09-Sep-2023 14:00,11.1,
09-Sep-2023 15:00,13.7,
09-Sep-2023 16:00,14.1,
09-Sep-2023 17:00,15.6,
09-Sep-2023 18:00,9.4,
09-Sep-2023 19:00,19.9,
09-Sep-2023 20:00,13.9,
09-Sep-2023 21:00,16.3,
09-Sep-2023 22:00,12,
09-Sep-2023 23:00,12.1,
10-Sep-2023 00:00,11.7,
10-Sep-2023 01:00,12,
10-Sep-2023 02:00,13.5,
10-Sep-2023 03:00,10.6,
10-Sep-2023 04:00,13.2,
10-Sep-2023 05:00,8.9,
10-Sep-2023 06:00,12.2,
10-Sep-2023 07:00,10.8,
10-Sep-2023 08:00,12.3,
10-Sep-2023 09:00,13,
10-Sep-2023 10:00,9.5,
10-Sep-2023 11:00,9.1,
10-Sep-2023 12:00,6.6,
10-Sep-2023 13:00,10,
10-Sep-2023 14:00,1.8,
10-Sep-2023 15:00,6.8,
10-Sep-2023 16:00,10.8,
10-Sep-2023 17:00,12.6,
10-Sep-2023 18:00,6.7,
10-Sep-2023 19:00,12.4,
10-Sep-2023 20:00,11.6,
10-Sep-2023 21:00,9.7,
10-Sep-2023 22:00,11.1,
10-Sep-2023 23:00,10,
11-Sep-2023 00:00,9.4,
11-Sep-2023 01:00,9.8,
11-Sep-2023 02:00,10.1,
11-Sep-2023 03:00,10.5,
11-Sep-2023 04:00,8.7,
11-Sep-2023 05:00,8,
11-Sep-2023 06:00,14,
11-Sep-2023 07:00,8.5,
11-Sep-2023 08:00,5.1,
11-Sep-2023 09:00,5.4,
11-Sep-2023 10:00,8.3,
11-Sep-2023 11:00,10.8,
11-Sep-2023 12:00,19.2,
11-Sep-2023 13:00,17.3,
11-Sep-2023 14:00,20.7,
11-Sep-2023 15:00,22.5,
11-Sep-2023 16:00,16,
11-Sep-2023 17:00,16.8,
11-Sep-2023 18:00,12.6,
11-Sep-2023 19:00,16,
11-Sep-2023 20:00,12,
11-Sep-2023 21:00,11.8,
11-Sep-2023 22:00,12.3,
11-Sep-2023 23:00,11.8,
12-Sep-2023 00:00,9,
12-Sep-2023 01:00,9.3,
12-Sep-2023 02:00,10.2,
12-Sep-2023 03:00,16.3,
12-Sep-2023 04:00,12.7,
12-Sep-2023 05:00,21.3,
12-Sep-2023 06:00,28.7,
12-Sep-2023 07:00,14,
12-Sep-2023 08:00,13.2,
12-Sep-2023 09:00,13.5,
12-Sep-2023 10:00,11.3,
12-Sep-2023 11:00,15.7,
12-Sep-2023 12:00,11.1,
12-Sep-2023 13:00,11.7,
12-Sep-2023 14:00,20.5,
12-Sep-2023 15:00,19.7,
12-Sep-2023 16:00,22,
12-Sep-2023 17:00,25.9,
12-Sep-2023 18:00,23.7,
12-Sep-2023 19:00,22.8,
12-Sep-2023 20:00,20.4,
12-Sep-2023 21:00,25.7,
12-Sep-2023 22:00,19.4,
12-Sep-2023 23:00,20.9,
13-Sep-2023 00:00,24.8,
13-Sep-2023 01:00,19.6,
13-Sep-2023 02:00,19.9,
13-Sep-2023 03:00,20.3,
13-Sep-2023 04:00,20.5,
13-Sep-2023 05:00,19.6,
13-Sep-2023 06:00,24.2,
13-Sep-2023 07:00,21.1,
13-Sep-2023 08:00,19.7,
13-Sep-2023 09:00,19.7,
13-Sep-2023 10:00,19.3,
13-Sep-2023 11:00,26.1,
13-Sep-2023 12:00,12.8,
13-Sep-2023 13:00,19.6,
13-Sep-2023 14:00,24.3,
13-Sep-2023 15:00,20.7,
13-Sep-2023 16:00,15.8,
13-Sep-2023 17:00,40.4,
13-Sep-2023 18:00,20.6,
13-Sep-2023 19:00,19.5,
13-Sep-2023 20:00,20.9,
13-Sep-2023 21:00,15.5,
13-Sep-2023 22:00,18.3,
13-Sep-2023 23:00,18.1,
14-Sep-2023 00:00,20.6,
14-Sep-2023 01:00,13.8,
14-Sep-2023 02:00,10,
14-Sep-2023 03:00,9.1,
14-Sep-2023 04:00,7.4,
14-Sep-2023 05:00,10.8,
14-Sep-2023 06:00,14.5,
14-Sep-2023 07:00,13.5,
14-Sep-2023 08:00,11.7,
14-Sep-2023 09:00,11,
14-Sep-2023 10:00,7,
14-Sep-2023 11:00,6.8,
14-Sep-2023 12:00,10.6,
14-Sep-2023 13:00,11.4,
14-Sep-2023 14:00,12.2,
14-Sep-2023 15:00,12.5,
14-Sep-2023 16:00,24.8,
14-Sep-2023 17:00,43.9,
14-Sep-2023 18:00,9.6,
14-Sep-2023 19:00,19.3,
14-Sep-2023 20:00,16.6,
14-Sep-2023 21:00,16.3,
14-Sep-2023 22:00,11.7,
14-Sep-2023 23:00,12.5,
15-Sep-2023 00:00,12.3,
15-Sep-2023 01:00,12.1,
15-Sep-2023 02:00,11.8,
15-Sep-2023 03:00,16.7,
15-Sep-2023 04:00,10.4,
15-Sep-2023 05:00,20.6,
15-Sep-2023 06:00,17,
15-Sep-2023 07:00,12.6,
15-Sep-2023 08:00,8.6,
15-Sep-2023 09:00,4.4,
15-Sep-2023 10:00,12.2,
15-Sep-2023 11:00,11.4,
15-Sep-2023 12:00,14.9,
15-Sep-2023 13:00,23.2,
15-Sep-2023 14:00,18.6,
15-Sep-2023 15:00,6.4,
15-Sep-2023 16:00,17.7,
15-Sep-2023 17:00,24.6,
15-Sep-2023 18:00,12.6,
15-Sep-2023 19:00,15.8,
15-Sep-2023 20:00,12.5,
15-Sep-2023 21:00,10.6,
15-Sep-2023 22:00,16.6,
15-Sep-2023 23:00,16.4,
16-Sep-2023 00:00,13,
16-Sep-2023 01:00,10.1,
16-Sep-2023 02:00,9.1,
16-Sep-2023 03:00,11.5,
16-Sep-2023 04:00,8.7,
16-Sep-2023 05:00,9.2,
16-Sep-2023 06:00,8.5,
16-Sep-2023 07:00,13.1,
16-Sep-2023 08:00,7.7,
16-Sep-2023 09:00,5.6,
16-Sep-2023 10:00,2.4,
16-Sep-2023 11:00,4.3,
16-Sep-2023 12:00,8.9,
16-Sep-2023 13:00,11.5,
16-Sep-2023 14:00,9,
16-Sep-2023 15:00,5.8,
16-Sep-2023 16:00,10.5,
16-Sep-2023 17:00,15.4,
16-Sep-2023 18:00,11.1,
16-Sep-2023 19:00,13.6,
16-Sep-2023 20:00,18.7,
16-Sep-2023 21:00,11.7,
16-Sep-2023 22:00,11.9,
16-Sep-2023 23:00,13,
17-Sep-2023 00:00,10.2,
17-Sep-2023 01:00,9.9,
17-Sep-2023 02:00,13.3,
17-Sep-2023 03:00,12.2,
17-Sep-2023 04:00,10.3,
17-Sep-2023 05:00,11.1,
17-Sep-2023 06:00,11.5,
17-Sep-2023 07:00,15,
17-Sep-2023 08:00,9.7,
17-Sep-2023 09:00,9.1,
17-Sep-2023 10:00,6.7,
17-Sep-2023 11:00,11.6,
17-Sep-2023 12:00,4.7,
17-Sep-2023 13:00,4.8,
17-Sep-2023 14:00,12.4,
17-Sep-2023 15:00,12.2,
17-Sep-2023 16:00,18.2,
17-Sep-2023 17:00,15.2,
17-Sep-2023 18:00,17.1,
17-Sep-2023 19:00,12,
17-Sep-2023 20:00,10.5,
17-Sep-2023 21:00,14.5,
17-Sep-2023 22:00,14.1,
17-Sep-2023 23:00,17.1,
18-Sep-2023 00:00,13.2,
18-Sep-2023 01:00,10.8,
18-Sep-2023 02:00,12.1,
18-Sep-2023 03:00,14.7,
18-Sep-2023 04:00,14,
18-Sep-2023 05:00,17.7,
18-Sep-2023 06:00,13.1,
18-Sep-2023 07:00,13.7,
18-Sep-2023 08:00,13.9,
18-Sep-2023 09:00,26.5,
18-Sep-2023 10:00,28.3,
18-Sep-2023 11:00,21,
18-Sep-2023 12:00,15.6,
18-Sep-2023 13:00,14.5,
18-Sep-2023 14:00,21.6,
18-Sep-2023 15:00,16.9,
18-Sep-2023 16:00,15.4,
18-Sep-2023 17:00,19.6,
18-Sep-2023 18:00,20.8,
18-Sep-2023 19:00,22,
18-Sep-2023 20:00,25.6,
18-Sep-2023 21:00,29.5,
18-Sep-2023 22:00,26.8,
18-Sep-2023 23:00,21.2,
19-Sep-2023 00:00,30.1,
19-Sep-2023 01:00,20.8,
19-Sep-2023 02:00,20,
19-Sep-2023 03:00,20.8,
19-Sep-2023 04:00,22.7,
19-Sep-2023 05:00,25.7,
19-Sep-2023 06:00,20.7,
19-Sep-2023 07:00,20,
19-Sep-2023 08:00,21.3,
19-Sep-2023 09:00,,BL
19-Sep-2023 10:00,,BL
19-Sep-2023 11:00,,BL
19-Sep-2023 12:00,,BL
19-Sep-2023 13:00,10.8,
19-Sep-2023 14:00,11.2,
19-Sep-2023 15:00,7,
19-Sep-2023 16:00,14.6,
19-Sep-2023 17:00,23.3,
19-Sep-2023 18:00,13.7,
19-Sep-2023 19:00,17.6,
19-Sep-2023 20:00,11.8,
19-Sep-2023 21:00,18.6,
19-Sep-2023 22:00,12.5,
19-Sep-2023 23:00,8.3,
20-Sep-2023 00:00,9.2,
20-Sep-2023 01:00,5.2,
20-Sep-2023 02:00,10.2,
20-Sep-2023 03:00,13.2,
20-Sep-2023 04:00,12.3,
20-Sep-2023 05:00,13.3,
20-Sep-2023 06:00,12.3,
20-Sep-2023 07:00,11.8,
20-Sep-2023 08:00,22.3,
20-Sep-2023 09:00,13.8,
20-Sep-2023 10:00,8.5,
20-Sep-2023 11:00,21,
20-Sep-2023 12:00,25.5,
20-Sep-2023 13:00,21.7,
20-Sep-2023 14:00,27.7,
20-Sep-2023 15:00,28.7,
20-Sep-2023 16:00,35.8,
20-Sep-2023 17:00,25,
20-Sep-2023 18:00,36.2,
20-Sep-2023 19:00,26.8,
20-Sep-2023 20:00,36.8,
20-Sep-2023 21:00,36,
20-Sep-2023 22:00,31.2,
20-Sep-2023 23:00,31.1,
21-Sep-2023 00:00,29.4,
21-Sep-2023 01:00,27.6,
21-Sep-2023 02:00,26.6,
21-Sep-2023 03:00,27.2,
21-Sep-2023 04:00,25,
21-Sep-2023 05:00,25.6,
21-Sep-2023 06:00,24.5,
21-Sep-2023 07:00,17.1,
21-Sep-2023 08:00,,BA
21-Sep-2023 09:00,,BA
21-Sep-2023 10:00,,BA
21-Sep-2023 11:00,30.3,
21-Sep-2023 12:00,21.8,
21-Sep-2023 13:00,17,
21-Sep-2023 14:00,13.1,
21-Sep-2023 15:00,19.7,
21-Sep-2023 16:00,16,
21-Sep-2023 17:00,21.3,
21-Sep-2023 18:00,17.2,
21-Sep-2023 19:00,15.7,
21-Sep-2023 20:00,24.1,
21-Sep-2023 21:00,37.8,
21-Sep-2023 22:00,42.1,
21-Sep-2023 23:00,34.8,
22-Sep-2023 00:00,32.2,
22-Sep-2023 01:00,27.3,
22-Sep-2023 02:00,25.4,
22-Sep-2023 03:00,20.1,
22-Sep-2023 04:00,29.2,
22-Sep-2023 05:00,27.6,
22-Sep-2023 06:00,22.8,
22-Sep-2023 07:00,15.9,
22-Sep-2023 08:00,19.2,
22-Sep-2023 09:00,17.2,
22-Sep-2023 10:00,18.4,
22-Sep-2023 11:00,24.3,
22-Sep-2023 12:00,23.6,
22-Sep-2023 13:00,30.5,
22-Sep-2023 14:00,28.3,
22-Sep-2023 15:00,26.3,
22-Sep-2023 16:00,37.6,
22-Sep-2023 17:00,23.8,
22-Sep-2023 18:00,23.5,
22-Sep-2023 19:00,25.4,
22-Sep-2023 20:00,34.1,
22-Sep-2023 21:00,23.5,
22-Sep-2023 22:00,20.7,
22-Sep-2023 23:00,20.4,
23-Sep-2023 00:00,21.4,
23-Sep-2023 01:00,19.6,
23-Sep-2023 02:00,17.9,
23-Sep-2023 03:00,17.6,
23-Sep-2023 04:00,20.9,
23-Sep-2023 05:00,20.2,
23-Sep-2023 06:00,17.4,
23-Sep-2023 07:00,14.3,
23-Sep-2023 08:00,17.2,
23-Sep-2023 09:00,20.1,
23-Sep-2023 10:00,22.3,
23-Sep-2023 11:00,28.2,
23-Sep-2023 12:00,23.5,
23-Sep-2023 13:00,22.7,
23-Sep-2023 14:00,24.5,
23-Sep-2023 15:00,25.5,
23-Sep-2023 16:00,39.7,
23-Sep-2023 17:00,26.9,
23-Sep-2023 18:00,20.8,
23-Sep-2023 19:00,24.8,
23-Sep-2023 20:00,18.5,
23-Sep-2023 21:00,20.3,
23-Sep-2023 22:00,20.3,
23-Sep-2023 23:00,22.1,
24-Sep-2023 00:00,23.2,
24-Sep-2023 01:00,21.3,
24-Sep-2023 02:00,20.2,
24-Sep-2023 03:00,20,
24-Sep-2023 04:00,22.2,
24-Sep-2023 05:00,20.4,
24-Sep-2023 06:00,19.7,
24-Sep-2023 07:00,16.6,
24-Sep-2023 08:00,22.4,
24-Sep-2023 09:00,25.6,
24-Sep-2023 10:00,24.8,
24-Sep-2023 11:00,23.5,
24-Sep-2023 12:00,21.2,
24-Sep-2023 13:00,19.2,
24-Sep-2023 14:00,20.2,
24-Sep-2023 15:00,16,
24-Sep-2023 16:00,16,
24-Sep-2023 17:00,17.8,
24-Sep-2023 18:00,18.3,
24-Sep-2023 19:00,17.1,
24-Sep-2023 20:00,16.2,
24-Sep-2023 21:00,15.5,
24-Sep-2023 22:00,11.6,
24-Sep-2023 23:00,14.8,
25-Sep-2023 00:00,16.6,
25-Sep-2023 01:00,14.3,
25-Sep-2023 02:00,15.2,
25-Sep-2023 03:00,14.3,
25-Sep-2023 04:00,14.2,
25-Sep-2023 05:00,14.6,
25-Sep-2023 06:00,18.6,
25-Sep-2023 07:00,,BA
25-Sep-2023 08:00,,BA
25-Sep-2023 09:00,,BA
25-Sep-2023 10:00,,BA
25-Sep-2023 11:00,21.7,
25-Sep-2023 12:00,14.9,
25-Sep-2023 13:00,12.6,
25-Sep-2023 14:00,23.8,
25-Sep-2023 15:00,17.1,
25-Sep-2023 16:00,17.4,
25-Sep-2023 17:00,17,
25-Sep-2023 18:00,14.7,
25-Sep-2023 19:00,17.3,
25-Sep-2023 20:00,17.9,
25-Sep-2023 21:00,16.2,
25-Sep-2023 22:00,16.7,
25-Sep-2023 23:00,15.8,
26-Sep-2023 00:00,14.8,
26-Sep-2023 01:00,12,
26-Sep-2023 02:00,11.5,
26-Sep-2023 03:00,12.7,
26-Sep-2023 04:00,24.3,
26-Sep-2023 05:00,18.4,
26-Sep-2023 06:00,10.3,
26-Sep-2023 07:00,8.7,
26-Sep-2023 08:00,18.5,
26-Sep-2023 09:00,20.1,
26-Sep-2023 10:00,12.6,
26-Sep-2023 11:00,11.5,
26-Sep-2023 12:00,19.8,
26-Sep-2023 13:00,19,
26-Sep-2023 14:00,17.3,
26-Sep-2023 15:00,17.9,
26-Sep-2023 16:00,24.5,
26-Sep-2023 17:00,16.4,
26-Sep-2023 18:00,16.6,
26-Sep-2023 19:00,17.7,
26-Sep-2023 20:00,17.9,
26-Sep-2023 21:00,17.5,
26-Sep-2023 22:00,17.9,
26-Sep-2023 23:00,21.3,
27-Sep-2023 00:00,18,
27-Sep-2023 01:00,26.7,
27-Sep-2023 02:00,18.6,
27-Sep-2023 03:00,17.1,
27-Sep-2023 04:00,21.1,
27-Sep-2023 05:00,23.9,
27-Sep-2023 06:00,18.6,
27-Sep-2023 07:00,13.3,
27-Sep-2023 08:00,17.5,
27-Sep-2023 09:00,16.1,
27-Sep-2023 10:00,17.4,
27-Sep-2023 11:00,20.3,
27-Sep-2023 12:00,23.9,
27-Sep-2023 13:00,26,
27-Sep-2023 14:00,26.3,
27-Sep-2023 15:00,27.3,
27-Sep-2023 16:00,27.9,
27-Sep-2023 17:00,24.2,
27-Sep-2023 18:00,23.9,
27-Sep-2023 19:00,23,
27-Sep-2023 20:00,24.8,
27-Sep-2023 21:00,23.8,
27-Sep-2023 22:00,24.6,
27-Sep-2023 23:00,50,
28-Sep-2023 00:00,23.2,
28-Sep-2023 01:00,21.6,
28-Sep-2023 02:00,21.8,
28-Sep-2023 03:00,23,
28-Sep-2023 04:00,25.4,
28-Sep-2023 05:00,36,
28-Sep-2023 06:00,21,
28-Sep-2023 07:00,19.7,
28-Sep-2023 08:00,25.2,
28-Sep-2023 09:00,22.1,
28-Sep-2023 10:00,24.3,
28-Sep-2023 11:00,30.9,
28-Sep-2023 12:00,31,
28-Sep-2023 13:00,29.1,
28-Sep-2023 14:00,43.9,
28-Sep-2023 15:00,31.4,
28-Sep-2023 16:00,32.5,
28-Sep-2023 17:00,33.3,
28-Sep-2023 18:00,32,
28-Sep-2023 19:00,25.2,
28-Sep-2023 20:00,25.4,
28-Sep-2023 21:00,24.5,
28-Sep-2023 22:00,22.5,
28-Sep-2023 23:00,21.6,
29-Sep-2023 00:00,20.9,
29-Sep-2023 01:00,22.4,
29-Sep-2023 02:00,19.2,
29-Sep-2023 03:00,23.1,
29-Sep-2023 04:00,21.5,
29-Sep-2023 05:00,21.3,
29-Sep-2023 06:00,30.1,
29-Sep-2023 07:00,24.6,
29-Sep-2023 08:00,29.9,
29-Sep-2023 09:00,34.2,
29-Sep-2023 10:00,38.4,
29-Sep-2023 11:00,35.7,
29-Sep-2023 12:00,36.3,
29-Sep-2023 13:00,39.4,
29-Sep-2023 14:00,42.1,
29-Sep-2023 15:00,35.3,
29-Sep-2023 16:00,21.9,
29-Sep-2023 17:00,19.8,
29-Sep-2023 18:00,22,
29-Sep-2023 19:00,15.3,
29-Sep-2023 20:00,15.9,
29-Sep-2023 21:00,16.7,
29-Sep-2023 22:00,16.9,
29-Sep-2023 23:00,30.1,
30-Sep-2023 00:00,10.1,
30-Sep-2023 01:00,10.5,
30-Sep-2023 02:00,12.9,
30-Sep-2023 03:00,18.6,
30-Sep-2023 04:00,18.6,
30-Sep-2023 05:00,16.2,
30-Sep-2023 06:00,13,
30-Sep-2023 07:00,20,
30-Sep-2023 08:00,21.5,
30-Sep-2023 09:00,20,
30-Sep-2023 10:00,17.3,
30-Sep-2023 11:00,8.9,
30-Sep-2023 12:00,12.1,
30-Sep-2023 13:00,3.8,
30-Sep-2023 14:00,10.4,
30-Sep-2023 15:00,13.5,
30-Sep-2023 16:00,8.8,
30-Sep-2023 17:00,10.2,
30-Sep-2023 18:00,5.8,
30-Sep-2023 19:00,7.2,
30-Sep-2023 20:00,7.7,
30-Sep-2023 21:00,18.3,
30-Sep-2023 22:00,11.6,
30-Sep-2023 23:00,7,
